Hovedside
METAR-TAF:

METAR-TAF

Lufthavner :

Storuman, Sverige

Storumans lufthavn

breddegrad: 64-57-39N, lengdegrad: 017-41-47E, høyde over havet: 279 m

Gjeldene værobservasjon

Denne rapporten ble laget for 18 minutter siden, klokken 11:50 UTC
Flau vind
Temperatur -8°C
Luftfuktighet 92%
Trykk 992 hPa
Sikt: 2400 m
dis

METAR: ESUD 151150Z AUTO 00000KT 2400 BR OVC003/// M08/M09 Q0992

Tid: 13:08 (12:08 UTC)


TAF: fraværende

Værobservasjoner og værvarsel for over 4000 flyplasser (METAR- og TAF-rapporter).

Tilgjengelige stasjoner er representert av de røde og gule prikkene på kartet.

Hold musepekeren over prikken for å se navnet på stasjonen.

Klikk så for å se værobservasjoner og -varsler.

For å forandre kartet kan du klikke på den grønne knappen med svart kryss for å zoome inn, på den grønne knappen med strek for å zoome ut, eller på de grønne pilene for å se tilstøtende kart.


METAR-TAF: